{"data":{"norad_id":51060,"intl_designator":"2022-002CE","name":"ETV-A1","alt_names":[],"object_type":"PAYLOAD","status":"ACTIVE","operator":null,"country":"UK","launch_date":"2022-01-13","launch_site_code":"AFETR","launch_vehicle":null,"mission":null,"orbit_class":"UNKNOWN","rcs_meters":null,"size_class":null,"mass_kg":null,"dimensions":null,"purposes":[],"wikipedia_slug":null,"has_3d_model":false,"image_url":null,"decayed_at":null,"tle_current":{"epoch":"2026-09-20T22:49:46.714368Z","epoch_age_seconds":74325,"freshness":"FRESH","line1":"1 51060U 22002CE  26263.95123512  .00008202  00000+0  19140-3 0  9994","line2":"2 51060  97.2782 330.0495 0004892  17.2626 342.8787 15.42463401260591","mean_motion":15.42463401,"eccentricity":0.0004892,"inclination_deg":97.2782,"raan_deg":330.0495,"arg_perigee_deg":17.2626,"mean_anomaly_deg":342.8787,"bstar":0.0001914,"rev_number":26059,"period_min":93.357158365406,"perigee_km":435.5067126671,"apogee_km":442.17644450839,"semimajor_km":6816.9785785877,"source":"CELESTRAK","updated_at":"2026-09-21T09:00:08.247861Z"}}}